Location: Ambatotampy
(18.8181°S, 47.6186°E)
Time: 19:02:41
(UTC+00:00)

NOSS 0 Rocket - Pass Details

Date: 21 January 2021
Orbit: 937 x 952 km, 70.0° (Epoch: 08 March)

Event Time Altitude Azimuth Distance (km) Brightness Sun altitude
Rises 00:59:00 0° 208° (SSW) 3,640 7.0 -20.0°
Reaches altitude 10° 01:01:38 10° 214° (SW) 2,689 6.3 -19.4°
Maximum altitude 01:07:32 45° 285° (WNW) 1,268 4.2 -18.2°
Drops below altitude 10° 01:13:23 10° 356° (N) 2,658 6.0 -17.0°
Sets 01:16:00 0° 2° (N) 3,594 6.7 -16.5°
